Location: Ailly
(50.0793°N, 1.9944°E)
Time: 20:14:07
(UTC+00:00)

Cosmos 1943 Rocket - Pass Details

Date: 15 January 2026
Orbit: 811 x 842 km, 71.0° (Epoch: 17 February)

Event Time Altitude Azimuth Distance (km) Brightness Sun altitude
Rises 05:19:28 0° 193° (SSW) 3,324 5.2 -22.7°
Reaches altitude 10° 05:21:55 10° 190° (S) 2,394 4.5 -22.3°
Maximum altitude 05:27:16 57° 112° (ESE) 952 2.7 -21.4°
Drops below altitude 10° 05:32:38 10° 35° (NE) 2,409 4.9 -20.6°
Sets 05:35:06 0° 32° (NNE) 3,347 5.6 -20.2°
